Location: Goettingen
(51.5300°N, 9.9433°E)
Time: 07:37:32
(UTC+02:00)

ISS - Pass Details

Date: 07 May 2021
Orbit: 417 x 422 km, 51.6° (Epoch: 18 May)

Event Time Altitude Azimuth Distance (km) Brightness Sun altitude
Exits shadow 03:35:21 31° 246° (WSW) 767 -2.9 -15.3°
Maximum altitude 03:36:49 75° 166° (SSE) 439 -3.8 -15.1°
Drops below altitude 10° 03:40:12 10° 81° (E) 1,508 -0.3 -14.8°
Sets 03:42:18 0° 80° (E) 2,374 0.8 -14.6°
